Regional Weather Roundup
Issued by NWS

Home | Current Version | Previous Version | Text Only | Print | Product List | Glossary Off
Versions: 1 2 3 4 5 6 7 8 9 10 11 12 13 14 15 16 17 18 19 20 21 22 23 24 25 26 27 28 29 30 31 32 33 34 35 36 37 38 39 40 41 42 43 44 45 46 47 48 49 50

636
ASUS44 KLIX 231601
RWRLA
LOUISIANA WEATHER ROUNDUP
NATIONAL WEATHER SERVICE NEW ORLEANS LA
1100 AM CDT WED JUL 23 2014

NOTE: "FAIR" INDICATES FEW OR NO CLOUDS BELOW 12,000 FEET WITH NO
      SIGNIFICANT WEATHER AND/OR OBSTRUCTIONS TO VISIBILITY.
      SKY/WX - SKY CONDITION AND SIGNIFICANT WEATHER.
      TMP - AIR TEMPERATURE.    DP   - DEWPOINT TEMPERATURE.
      RH  - RELATIVE HUMIDITY.  PRES - PRESSURE.
      HX  - HEAT INDEX.         WCI  - WIND CHILL INDEX.

*  THESE STATIONS ARE NOT NWS OR FAA STATIONS AND ARE NOT UNDER
   NWS QUALITY CONTROL.

LAZ040-048-061>063-065-066-069-231700-
SOUTHEAST LOUISIANA

CITY           SKY/WX    TMP DP  RH WIND       PRES   REMARKS
N.O. AUDUBON     N/A     76  72  87 MISG        N/A
N.O. INTL ARPT TSTM      75  72  90 E3        30.07R
N.O. LAKEFRONT PTSUNNY   75  71  87 SW8       30.07R
N.O. DOWNTOWN* PTSUNNY   73  68  83 CALM      30.07S
SLIDELL        PTSUNNY   82  73  74 S10       30.06R
BATON ROUGE    MOSUNNY   84  73  69 VRB7      30.06R
BOOTHVILLE     CLOUDY    75  73  93 S8        30.09S
BELLE CHASSE   CLOUDY    77  70  79 N5        30.06S
BOGALUSA*      FAIR      84  73  68 CALM      30.08S
GALLIANO*      NOT AVBL
NEW ROADS*     FAIR      82  71  69 N6        30.06S
GONZALES*      PTSUNNY   84  76  74 NE5       30.05R
HAMMOND*       MOSUNNY   88  72  58 CALM      30.08R
HOUMA*         PTSUNNY   81  70  69 S7        30.05S
PORT FOURCHON* PTSUNNY   82  73  74 SW10      30.07S

$$

LAZ041-044-053-054-231700-
SOUTHWEST LOUISIANA

CITY           SKY/WX    TMP DP  RH WIND       PRES   REMARKS
LAKE CHARLES   SUNNY     87  73  62 N6        30.05S
LAFAYETTE      SUNNY     85  72  65 VRB3      30.05S
PATTERSON      PTSUNNY   84  75  74 NE7       30.09R
SALT POINT       N/A     89  77  67 CALM      30.03R HX 101
NEW IBERIA     SUNNY     86  75  69 NE6       30.06S HX  95
CHENAULT AIRPK MOSUNNY   84  73  70 VRB5      30.06F

$$

LAZ027-028-231700-
CENTRAL LOUISIANA

CITY           SKY/WX    TMP DP  RH WIND       PRES   REMARKS
FORT POLK      MOSUNNY   84  71  65 CALM      30.08R
ALEXANDRIA INT SUNNY     84  72  67 CALM      30.06S
ALEXANDRIA     SUNNY     86  69  56 SE3       30.07S

$$

LAZ001-002-231700-
NORTHWEST LOUISIANA

CITY           SKY/WX    TMP DP  RH WIND       PRES   REMARKS
SHREVEPORT     MOSUNNY   88  70  55 NE5       30.08F
BARKSDALE AFB  PTSUNNY   86  72  61 VRB1      30.09F
DTN SHREVEPORT SUNNY     86  71  60 CALM      30.09F

$$

LAZ014-016-231700-
NORTHEAST LOUISIANA

CITY           SKY/WX    TMP DP  RH WIND       PRES   REMARKS
MONROE         MOSUNNY   87  72  60 CALM      30.08S
TALLULAH       PTSUNNY   83  72  69 SW3       30.07F

$$




USA.gov is the U.S. government's official web portal to all federal, state and local government web resources and services.